FW9917 Weather Reports


Display with metric or nautical units.
time (UTC)temp
F
wind
direction
speed
MPH
gust
MPH
rain 1hr
in
rain 24hr
in
rain mn
in
humidity
%
barometer
mb
20260503213556 48 352 1.0 12.0 0.00 0.00 0.00 67 1016.4
20260503213057 49 345 2.0 13.0 0.00 0.00 0.00 63 1016.4
20260503212557 50 19 4.0 13.0 0.00 0.00 0.00 60 1016.1
20260503212057 50 22 3.0 12.0 0.00 0.00 0.00 63 1015.7
20260503211556 51 16 6.0 14.0 0.00 0.00 0.00 62 1015.6
20260503211058 51 15 5.0 14.0 0.00 0.00 0.00 60 1015.6
20260503210556 51 15 4.0 16.0 0.00 0.00 0.00 62 1015.5
20260503210055 51 9 3.0 16.0 0.00 0.00 0.00 66 1015.4
20260503205556 51 223 4.0 12.0 0.00 0.00 0.00 59 1015.4
20260503205057 53 22 4.0 16.0 0.00 0.00 0.00 59 1015.2
20260503204603 54 15 7.0 16.0 0.00 0.00 0.00 57 1015.1
20260503204057 56 16 5.0 14.0 0.00 0.00 0.00 59 1015.0
20260503203556 58 11 1.0 7.0 0.00 0.00 0.00 55 1014.6
20260503203059 59 13 2.0 7.0 0.00 0.00 0.00 50 1014.4
20260503202557 61 15 0.0 3.0 0.00 0.00 0.00 43 1014.3
20260503202059 61 13 1.0 3.0 0.00 0.00 0.00 39 1014.1
20260503201558 62 0 1.0 3.0 0.00 0.00 0.00 39 1014.0
20260503201056 62 11 0.0 4.0 0.00 0.00 0.00 42 1013.9
20260503200558 62 16 0.0 5.0 0.00 0.00 0.00 40 1014.1
20260503200058 61 0 2.0 5.0 0.00 0.00 0.00 38 1013.9
20260503195556 61 14 2.0 7.0 0.00 0.00 0.00 38 1014.0
20260503195056 61 11 1.0 8.0 0.00 0.00 0.00 40 1014.1
20260503194554 60 11 1.0 8.0 0.00 0.00 0.00 41 1014.0
20260503194058 61 13 2.0 7.0 0.00 0.00 0.00 38 1014.2
20260503193556 61 11 2.0 7.0 0.00 0.00 0.00 39 1014.2
20260503193111 61 12 1.0 5.0 0.00 0.00 0.00 42 1014.3
20260503192556 61 11 2.0 7.0 0.00 0.00 0.00 40 1014.2
20260503192057 60 12 0.0 7.0 0.00 0.00 0.00 42 1014.3
20260503191600 60 13 1.0 8.0 0.00 0.00 0.00 43 1014.4
20260503191057 60 9 2.0 8.0 0.00 0.00 0.00 42 1014.5
20260503190557 60 12 1.0 7.0 0.00 0.00 0.00 43 1014.6
20260503190107 59 0 2.0 7.0 0.00 0.00 0.00 45 1014.6
20260503185556 60 16 1.0 4.0 0.00 0.00 0.00 43 1014.6
20260503185056 59 10 1.0 4.0 0.00 0.00 0.00 43 1014.6
20260503184601 59 12 2.0 4.0 0.00 0.00 0.00 45 1014.8
20260503184057 59 11 1.0 5.0 0.00 0.00 0.00 44 1014.8
20260503183557 59 12 2.0 8.0 0.00 0.00 0.00 44 1014.9
20260503183109 59 13 2.0 8.0 0.00 0.00 0.00 42 1014.9
20260503182557 59 11 1.0 5.0 0.00 0.00 0.00 42 1014.9
20260503182057 59 10 2.0 5.0 0.00 0.00 0.00 42 1015.0
20260503181555 59 0 2.0 5.0 0.00 0.00 0.00 42 1015.1
20260503181057 59 10 2.0 9.0 0.00 0.00 0.00 42 1014.9
20260503180600 59 9 2.0 9.0 0.00 0.00 0.00 42 1015.0
20260503175556 59 15 1.0 7.0 0.00 0.00 0.00 45 1015.0
20260503175056 59 11 2.0 7.0 0.00 0.00 0.00 44 1015.1
20260503174556 58 13 2.0 7.0 0.00 0.00 0.00 45 1015.1
20260503174100 57 11 1.0 10.0 0.00 0.00 0.00 45 1015.1
20260503173559 57 12 1.0 10.0 0.00 0.00 0.00 44 1015.1
20260503173112 57 10 1.0 9.0 0.00 0.00 0.00 48 1015.0
20260503172556 56 13 2.0 10.0 0.00 0.00 0.00 47 1015.1
20260503172100 56 11 3.0 10.0 0.00 0.00 0.00 46 1015.0
20260503171557 56 11 2.0 7.0 0.00 0.00 0.00 47 1015.1
20260503171057 56 13 1.0 7.0 0.00 0.00 0.00 47 1015.0
20260503170558 56 9 2.0 7.0 0.00 0.00 0.00 47 1015.1
20260503150556 51 13 0.0 3.0 0.00 0.00 0.00 58 1015.6
20260503150110 51 0 1.0 6.0 0.00 0.00 0.00 59 1015.6
20260503140118 44 0 0.0 2.0 0.00 0.00 0.00 75 1015.7
20260503131056 44 86 0.0 2.0 0.00 0.00 0.00 80 1015.6
20260503130556 44 0 0.0 2.0 0.00 0.00 0.00 80 1015.5
20260503130109 44 0 0.0 2.0 0.00 0.00 0.00 80 1015.6
20260503110600 46 177 0.0 2.0 0.00 0.00 0.00 76 1016.2
20260503100107 46 0 0.0 1.0 0.00 0.00 0.00 80 1016.4
20260503081606 48 335 0.0 2.0 0.00 0.00 0.00 76 1017.4
20260503081057 48 333 0.0 1.0 0.00 0.00 0.00 77 1017.5
20260503080559 48 0 0.0 1.0 0.00 0.00 0.00 77 1017.6
20260503072557 48 0 0.0 5.0 0.00 0.00 0.00 70 1017.6
20260503072100 48 0 0.0 2.0 0.00 0.00 0.00 76 1017.7
20260503071607 48 0 0.0 2.0 0.00 0.00 0.00 75 1017.7
20260503071056 48 0 0.0 2.0 0.00 0.00 0.00 74 1017.6
20260503070556 48 0 0.0 0.0 0.00 0.00 0.00 73 1017.8
20260503060108 48 109 0.0 2.0 0.00 0.00 0.00 72 1017.6
20260503055057 48 0 0.0 1.0 0.00 0.00 0.00 71 1017.6
20260503054558 48 0 0.0 1.0 0.00 0.00 0.00 72 1017.8
20260503054057 48 0 0.0 1.0 0.00 0.00 0.00 72 1017.8
20260503053557 48 0 0.0 2.0 0.00 0.00 0.00 71 1017.7
20260503053058 48 0 0.0 2.0 0.00 0.00 0.00 72 1017.8
20260503052556 48 0 0.0 3.0 0.00 0.00 0.00 72 1017.7
20260503052056 48 0 0.0 3.0 0.00 0.00 0.00 71 1017.7
20260503051600 48 0 0.0 2.0 0.00 0.00 0.00 72 1017.8
20260503051056 48 107 0.0 2.0 0.00 0.00 0.00 71 1017.7
20260503050601 49 0 0.0 2.0 0.00 0.00 0.00 71 1017.8
20260503050058 49 107 0.0 2.0 0.00 0.00 0.00 70 1017.7
20260503045557 49 0 0.0 1.0 0.00 0.00 0.00 68 1017.7
20260503045057 50 0 0.0 1.0 0.00 0.00 0.00 68 1017.6
20260503044600 50 0 0.0 1.0 0.00 0.00 0.00 68 1017.6
20260503044058 50 0 0.0 1.0 0.00 0.00 0.00 67 1017.6
20260503043557 50 0 0.0 1.0 0.00 0.00 0.00 67 1017.5
20260503043057 51 0 0.0 2.0 0.00 0.00 0.00 65 1017.4
20260503042557 51 0 0.0 2.0 0.00 0.00 0.00 66 1017.5
20260503042057 51 62 0.0 4.0 0.00 0.00 0.00 65 1017.4
20260503041556 51 94 0.0 4.0 0.00 0.00 0.00 66 1017.5
20260503041058 51 0 1.0 7.0 0.00 0.00 0.00 66 1017.5
20260503040556 51 0 1.0 7.0 0.00 0.00 0.00 66 1017.6
20260503040055 51 85 0.0 4.0 0.00 0.00 0.00 67 1017.6
20260503035557 51 81 0.0 4.0 0.00 0.00 0.00 67 1017.4
20260503035059 51 82 1.0 4.0 0.00 0.00 0.00 66 1017.4
20260503034555 51 0 0.0 1.0 0.00 0.00 0.00 67 1017.2
20260503034057 51 0 0.0 3.0 0.00 0.00 0.00 65 1017.3
20260503033556 52 0 1.0 4.0 0.00 0.00 0.00 64 1017.3
20260503033055 52 74 0.0 4.0 0.00 0.00 0.00 65 1017.2
20260503032600 53 101 0.0 7.0 0.00 0.00 0.00 63 1017.2
20260503032056 53 132 1.0 7.0 0.00 0.00 0.00 61 1017.2
20260503031555 53 91 2.0 7.0 0.00 0.00 0.00 58 1017.0
20260503031057 53 0 0.0 3.0 0.00 0.00 0.00 56 1017.1
20260503030556 53 0 0.0 3.0 0.00 0.00 0.00 55 1017.1
20260503030059 53 0 0.0 1.0 0.00 0.00 0.00 58 1017.0
20260503025559 54 0 0.0 1.0 0.00 0.00 0.00 58 1017.0
20260503025057 54 0 0.0 0.0 0.00 0.00 0.00 60 1017.0
20260503024604 54 0 0.0 0.0 0.00 0.00 0.00 59 1017.0
20260503024057 54 0 0.0 0.0 0.00 0.00 0.00 60 1017.0
20260503023557 54 0 0.0 1.0 0.00 0.00 0.00 58 1016.8
20260503023057 55 0 0.0 1.0 0.00 0.00 0.00 58 1016.8
20260503022556 55 0 0.0 1.0 0.00 0.00 0.00 57 1016.7
20260503022056 55 0 0.0 0.0 0.00 0.00 0.00 58 1016.7
20260503021601 55 0 0.0 0.0 0.00 0.00 0.00 55 1016.7
20260503021100 55 0 0.0 2.0 0.00 0.00 0.00 55 1016.8
20260503020557 55 0 0.0 2.0 0.00 0.00 0.00 55 1016.7
20260503020100 56 0 0.0 1.0 0.00 0.00 0.00 53 1016.7
20260503015601 56 0 0.0 1.0 0.00 0.00 0.00 54 1016.6
20260503015057 56 0 0.0 2.0 0.00 0.00 0.00 53 1016.6
20260503014623 56 0 0.0 2.0 0.00 0.00 0.00 52 1016.6
20260503014057 56 11 0.0 2.0 0.00 0.00 0.00 51 1016.8
20260503013557 56 0 0.0 1.0 0.00 0.00 0.00 52 1016.7
20260503013056 56 0 0.0 0.0 0.00 0.00 0.00 52 1016.8
20260503012600 57 0 0.0 0.0 0.00 0.00 0.00 51 1016.8
20260503012056 57 0 0.0 3.0 0.00 0.00 0.00 50 1016.7
20260503011620 57 0 0.0 3.0 0.00 0.00 0.00 52 1017.0
20260503011053 57 10 0.0 3.0 0.00 0.00 0.00 49 1017.0
20260503010556 58 12 0.0 3.0 0.00 0.00 0.00 48 1016.9
20260503010058 58 211 0.0 3.0 0.00 0.00 0.00 49 1016.8
20260503005557 58 0 0.0 1.0 0.00 0.00 0.00 55 1016.8
20260503005058 59 0 0.0 0.0 0.00 0.00 0.00 55 1016.6
20260503004604 59 0 0.0 0.0 0.00 0.00 0.00 52 1016.6
20260503004057 59 0 0.0 1.0 0.00 0.00 0.00 50 1016.7
20260503003557 59 0 0.0 1.0 0.00 0.00 0.00 49 1016.7
20260503003058 59 0 0.0 1.0 0.00 0.00 0.00 49 1016.7
20260503002600 59 0 0.0 1.0 0.00 0.00 0.00 48 1016.7
20260503002057 59 0 0.0 1.0 0.00 0.00 0.00 48 1016.7
20260503001557 59 0 0.0 1.0 0.00 0.00 0.00 46 1016.6
20260503001057 59 0 0.0 0.0 0.00 0.00 0.00 47 1016.6
20260503000557 59 0 0.0 1.0 0.00 0.00 0.00 47 1016.7
20260503000055 59 0 0.0 1.0 0.00 0.00 0.00 47 1016.7
20260502235556 59 16 0.0 4.0 0.00 0.00 0.00 44 1016.7
20260502235056 59 16 1.0 4.0 0.00 0.00 0.00 44 1016.6
20260502234557 59 15 0.0 7.0 0.00 0.00 0.00 43 1016.9
20260502234058 59 16 2.0 7.0 0.00 0.00 0.00 42 1016.9
20260502233557 59 0 0.0 2.0 0.00 0.00 0.00 45 1017.0
20260502233059 59 0 0.0 2.0 0.00 0.00 0.00 46 1016.8
20260502232557 59 0 0.0 4.0 0.00 0.00 0.00 45 1016.8
20260502232057 59 10 0.0 5.0 0.00 0.00 0.00 46 1016.8
20260502231555 59 0 1.0 5.0 0.00 0.00 0.00 45 1017.0
20260502231057 59 0 1.0 5.0 0.00 0.00 0.00 45 1017.0
20260502230557 60 11 0.0 5.0 0.00 0.00 0.00 45 1017.0
20260502230056 60 0 0.0 5.0 0.00 0.00 0.00 47 1017.2
20260502225556 60 0 0.0 3.0 0.00 0.00 0.00 46 1017.2
20260502225058 60 15 1.0 3.0 0.00 0.00 0.00 43 1017.3
20260502224608 61 0 0.0 0.0 0.00 0.00 0.00 47 1017.2
20260502224057 60 0 0.0 2.0 0.00 0.00 0.00 47 1017.2
20260502223557 60 0 0.0 5.0 0.00 0.00 0.00 46 1017.3
20260502223057 60 0 0.0 5.0 0.00 0.00 0.00 44 1017.4
20260502222557 61 16 1.0 3.0 0.00 0.00 0.00 44 1017.4
20260502222056 61 0 0.0 2.0 0.00 0.00 0.00 44 1017.4
20260502221556 60 0 0.0 2.0 0.00 0.00 0.00 44 1017.6
20260502221056 60 0 0.0 4.0 0.00 0.00 0.00 44 1017.8
20260502220557 60 0 0.0 4.0 0.00 0.00 0.00 44 1017.8
20260502220106 60 15 1.0 4.0 0.00 0.00 0.00 44 1017.8
20260502215557 60 15 2.0 4.0 0.00 0.00 0.00 43 1018.0
20260502215100 60 0 0.0 2.0 0.00 0.00 0.00 44 1018.0
20260502214558 60 14 0.0 4.0 0.00 0.00 0.00 45 1018.0
20260502214058 60 0 1.0 4.0 0.00 0.00 0.00 45 1018.1